| Date | Time | Temp. (oF) | Dew Point (oF) | Rel. Hum. (%) | Press. (in.) | Wind Dir. | Wind Speed (mph) | Hourly Rainfall (in.) |
|
|---|---|---|---|---|---|---|---|---|---|
| 1 | 01/09 | 00:00 | 15 | 2 | 58 | 30.70 | WNW | 5 | 0.00 |
| 2 | 01/08 | 23:00 | 16 | 3 | 56 | 30.71 | WNW | 3 | 0.00 |
| 3 | 01/08 | 22:00 | 16 | 2 | 54 | 30.69 | WNW | 4 | 0.00 |
| 4 | 01/08 | 21:00 | 16 | 1 | 52 | 30.66 | WNW | 12 | 0.00 |
| 5 | 01/08 | 20:00 | 17 | 1 | 51 | 30.63 | WNW | 3 | 0.00 |
| 6 | 01/08 | 19:00 | 17 | 1 | 51 | 30.59 | WNW | 17 | 0.00 |
| 7 | 01/08 | 18:00 | 17 | 1 | 51 | 30.56 | WNW | 5 | 0.00 |
| 8 | 01/08 | 17:00 | 18 | 0 | 45 | 30.51 | WNW | 6 | 0.00 |
| 9 | 01/08 | 16:00 | 20 | 0 | 42 | 30.48 | WNW | 3 | 0.00 |
| 10 | 01/08 | 15:00 | 20 | 0 | 42 | 30.46 | WNW | 4 | 0.00 |
| 11 | 01/08 | 14:00 | 22 | 2 | 42 | 30.44 | WNW | 18 | 0.00 |
| 12 | 01/08 | 13:00 | 21 | 2 | 45 | 30.44 | WNW | 18 | 0.00 |
| 13 | 01/08 | 12:00 | 20 | 3 | 49 | 30.44 | WNW | 16 | 0.00 |
| 14 | 01/08 | 11:00 | 18 | 4 | 54 | 30.45 | WNW | 12 | 0.00 |
| 15 | 01/08 | 10:00 | 16 | 3 | 56 | 30.46 | W | 10 | 0.00 |
| 16 | 01/08 | 09:00 | 13 | 2 | 61 | 30.46 | WNW | 4 | 0.00 |
| 17 | 01/08 | 08:00 | 11 | 1 | 64 | 30.44 | WNW | 4 | 0.00 |
| 18 | 01/08 | 07:00 | 11 | 0 | 63 | 30.43 | WNW | 5 | 0.00 |
| 19 | 01/08 | 06:00 | 11 | 0 | 61 | 30.41 | WNW | 4 | 0.00 |
| 20 | 01/08 | 05:00 | 12 | 0 | 60 | 30.39 | WNW | 7 | 0.00 |
| 21 | 01/08 | 04:00 | 13 | 0 | 57 | 30.38 | WNW | 13 | 0.00 |
| 22 | 01/08 | 03:00 | 14 | 2 | 59 | 30.35 | WNW | 7 | 0.00 |
| 23 | 01/08 | 02:00 | 14 | 2 | 60 | 30.33 | WNW | 10 | 0.00 |
| 24 | 01/08 | 01:00 | 17 | 5 | 60 | 30.32 | WNW | 7 | 0.00 |